Location: Pl�tzky
(52.0521°N, 11.8020°E)
Time: 16:07:21
(UTC+00:00)

SMAP - Pass Details

Date: 22 November 2019
Orbit: 682 x 683 km, 98.1° (Epoch: 08 December)

Event Time Altitude Azimuth Distance (km) Brightness Sun altitude
Rises 15:59:43 0° 151° (SSE) 3,036 6.4 -7.1°
Reaches altitude 10° 16:01:58 10° 147° (SSE) 2,125 5.5 -7.5°
Maximum altitude 16:06:31 57° 70° (ENE) 807 3.1 -8.1°
Drops below altitude 10° 16:11:06 10° 352° (N) 2,140 5.5 -8.8°
Sets 16:13:22 0° 349° (NNW) 3,060 6.3 -9.1°
